User: anonymous   Login
Location: UBC Liquid-Mirror Observatory
(49.2876°N, 122.5728°W)
Time: 19:30:20
(UTC-07:00)
Language:

Cosmos 1743 Rocket - Orbit

View from above orbital plane
View from above orbital plane
View from above satellite
View from above satellite

Ground track
Ground track

The orbit data is extracted from the following two-line orbital elements,

1 16720U 86034B   16206.47032029  .00000090  00000-0  80398-5 0  9991
2 16720  82.5535 187.0173 0021842 101.7611  19.9406 14.83237765630685
Epoch (UTC): 24 July 2016 11:17:15
Eccentricity: 0.0021842
inclination: 82.5535°
perigee height: 604 km
apogee height: 634 km
right ascension of ascending node: 187.0173°
argument of perigee: 101.7611°
revolutions per day: 14.83237765
mean anomaly at epoch: 19.9406°
orbit number at epoch: 63068

The dashed part of the orbit path shows where the satellite is in the earth's shadow,  

DLR